Temp
8 7 7 8 8 9 9 10 10 10 11 10 10 10 9 7 7 7 9 10 10 10 10 10 11 11 11 12 12 12 12 12 13 13 15 13 14 13 13 12 12 13 13 13 11
8 8 8 8 7 7 8 8 9 10 10 10 10 9 9 7 7 10 11 10 10 10 10 10 11 11 11 12 12 12 11 12 12 12 13 13 14 13 13 11 12 12 13 12 12
8 7 7 8 8 7 7 7 8 9 9 10 10 9 6 7 8 12 12 11 10 10 9 10 10 11 11 11 11 10 11 11 12 13 13 13 13 13 12 12 13 13 13 11 11
6 7 7 7 7 8 8 7 7 8 9 9 9 8 7 7 10 11 11 11 10 10 10 10 10 10 10 10 11 11 10 11 13 13 13 12 13 12 12 14 15 15 16 12 11
4 6 6 6 6 7 7 7 7 7 7 8 8 7 6 7 10 11 11 10 10 10 10 10 10 10 10 9 10 10 11 11 13 13 13 13 12 13 12 14 15 14 13 13 12
5 4 5 5 5 6 7 7 7 7 6 7 7 7 6 6 11 10 10 10 10 10 10 9 10 11 10 10 11 11 11 11 12 12 12 12 12 12 13 13 14 14 13 13 12
5 5 5 4 4 5 6 7 7 7 6 7 7 6 6 7 10 10 10 10 10 10 9 9 10 11 11 10 11 10 10 10 10 10 11 11 11 9 13 12 13 13 12 12 12
4 4 5 4 4 5 5 5 6 6 6 6 6 6 6 9 9 9 9 9 9 9 9 10 10 10 11 10 9 10 10 10 10 9 10 12 11 11 11 11 11 12 11 11 12
3 4 4 4 4 4 5 5 5 6 6 6 6 6 6 8 8 9 9 9 9 9 9 10 10 10 10 8 9 8 9 8 9 8 9 9 10 9 9 9 9 10 10 10 10
3 3 3 4 4 4 4 4 5 5 5 5 5 5 7 8 8 9 9 9 9 9 9 9 9 8 8 10 9 8 7 7 9 9 8 8 9 8 9 8 8 9 9 9 9
3 3 4 4 4 4 3 3 4 5 5 6 6 7 7 7 8 8 8 8 9 9 7 7 8 8 9 9 9 8 7 8 7 8 8 8 8 9 9 7 7 7 8 8 10
3 3 3 3 3 3 3 2 4 4 4 5 6 6 7 7 7 7 8 8 8 7 5 6 6 8 8 8 8 8 8 8 8 7 8 7 8 9 8 8 8 8 7 8 8
2 2 3 3 2 3 2 2 2 3 3 5 6 5 6 7 6 7 8 8 6 5 6 6 7 7 8 7 9 9 8 8 9 8 7 7 9 9 8 8 9 10 11 9 10
2 2 2 2 2 2 2 3 3 2 2 4 4 5 7 7 6 8 8 8 6 6 5 6 7 7 7 7 8 8 8 9 8 8 9 6 10 9 7 7 6 7 8 9 9
1 1 1 1 1 1 2 3 2 2 2 6 5 7 7 7 8 7 8 8 5 5 6 7 5 7 6 8 8 8 7 8 7 6 7 6 8 10 6 8 8 6 6 8 10
1 1 1 1 1 1 1 1 0 2 2 5 5 4 4 6 6 6 7 8 7 6 6 7 7 7 7 6 8 5 6 5 4 5 6 7 9 10 10 9 8 5 6 8 10
1 1 1 1 0 1 1 0 1 3 6 5 4 4 4 4 4 5 5 6 6 5 5 6 7 7 6 5 6 6 7 4 5 4 6 4 5 12 9 7 8 7 5 7 9
1 1 1 1 1 1 -0 0 1 3 3 6 4 4 4 5 5 4 5 6 6 5 4 5 5 6 6 6 6 5 7 5 7 5 7 4 6 10 7 6 7 7 7 7 8
1 1 1 2 1 0 0 1 -0 3 3 4 4 3 3 5 4 5 3 6 6 4 6 4 6 5 6 6 8 6 6 5 3 2 5 6 5 8 5 6 5 4 4 5 6
0 0 1 1 0 -0 0 2 1 2 4 3 4 4 3 3 3 3 3 5 6 6 5 5 3 5 5 6 5 6 5 7 2 5 7 7 6 11 7 6 5 4 3 4 5
0 -0 1 1 -0 -0 1 0 1 3 3 2 3 3 4 4 4 4 3 5 6 5 6 5 4 4 5 5 5 5 5 3 4 3 7 8 10 6 7 6 6 4 4 5 6
-1 -1 0 0 -0 -0 1 0 3 3 4 3 2 3 4 3 2 2 4 5 5 6 5 3 2 3 3 3 3 4 3 4 6 3 -2 3 9 5 4 4 4 4 5 6 7
-1 -1 -0 -0 -3 -2 -0 1 2 2 3 2 3 3 4 3 2 2 3 5 4 5 4 2 2 1 3 4 2 3 2 -1 -2 0 1 8 10 5 4 3 4 4 4 5 6
-1 -4 -1 -1 -1 -0 -0 -1 -0 2 2 2 3 5 4 3 4 2 3 5 4 3 4 3 2 1 4 2 -0 0 -3 1 3 4 3 4 8 9 7 5 3 4 5 5 6
-1 -2 -1 -2 -3 -0 -0 -1 1 2 2 2 2 3 3 3 4 4 4 4 3 4 4 1 3 -0 3 2 2 2 2 0 3 6 8 8 6 8 7 4 3 5 5 5 5
-2 -2 -1 -1 -0 -0 -1 -3 1 2 2 2 2 3 2 2 4 3 3 2 3 1 2 1 3 3 4 2 2 4 3 4 5 3 4 5 5 5 4 4 3 4 5 5 6
-1 -1 -1 -2 -1 -0 -0 0 1 2 2 3 2 2 2 2 3 3 4 3 2 2 2 1 2 4 4 3 4 4 4 3 5 3 5 6 8 2 3 4 4 4 6 6 7
Height
1489 1487 1485 1483 1481 1479 1477 1475 1472 1470 1468 1465 1463 1460 1458 1457 1456 1455 1453 1454 1457 1459 1462 1465 1468 1470 1472 1475 1476 1477 1481 1482 1478 1480 1473 1474 1476 1478 1480 1480 1484 1485 1486 1488 1492
1486 1485 1483 1481 1479 1477 1475 1472 1470 1467 1466 1464 1461 1458 1456 1455 1453 1450 1452 1451 1454 1458 1460 1462 1465 1469 1471 1473 1474 1474 1478 1474 1471 1471 1471 1471 1473 1476 1479 1482 1483 1485 1486 1487 1491
1482 1481 1478 1477 1476 1474 1473 1470 1467 1465 1463 1462 1460 1458 1456 1453 1452 1445 1446 1448 1453 1456 1459 1462 1464 1467 1469 1470 1472 1472 1472 1471 1468 1470 1470 1471 1472 1474 1476 1482 1477 1478 1482 1486 1489
1478 1477 1474 1473 1472 1471 1470 1468 1465 1462 1461 1459 1458 1456 1455 1454 1454 1445 1445 1448 1453 1455 1458 1460 1462 1465 1468 1468 1468 1472 1469 1470 1468 1469 1469 1470 1470 1473 1474 1474 1474 1478 1480 1482 1487
1472 1470 1469 1468 1467 1466 1465 1464 1462 1460 1458 1456 1455 1455 1454 1452 1446 1445 1445 1447 1450 1453 1455 1458 1460 1462 1464 1466 1467 1468 1468 1468 1468 1469 1469 1469 1469 1471 1471 1473 1474 1476 1478 1481 1485
1470 1467 1465 1463 1462 1460 1460 1459 1458 1457 1456 1454 1453 1452 1453 1451 1443 1444 1443 1446 1447 1450 1453 1455 1458 1460 1462 1463 1465 1464 1465 1466 1467 1468 1469 1470 1469 1471 1468 1470 1472 1474 1476 1479 1482
1466 1464 1461 1459 1456 1455 1455 1454 1453 1453 1452 1451 1451 1450 1447 1440 1441 1443 1442 1443 1446 1447 1450 1453 1457 1459 1459 1461 1462 1464 1466 1467 1466 1467 1468 1469 1469 1465 1466 1467 1469 1471 1474 1477 1479
1461 1459 1457 1455 1453 1451 1449 1448 1448 1448 1447 1447 1447 1446 1440 1436 1437 1439 1440 1441 1444 1447 1449 1452 1455 1458 1458 1460 1462 1465 1467 1469 1463 1464 1466 1468 1461 1458 1460 1462 1465 1468 1470 1473 1476
1456 1454 1451 1449 1448 1446 1444 1442 1442 1443 1442 1442 1443 1443 1437 1430 1431 1434 1437 1438 1441 1445 1448 1450 1453 1455 1458 1460 1465 1467 1467 1471 1465 1463 1464 1466 1460 1457 1458 1459 1461 1463 1466 1470 1475
1450 1447 1444 1442 1442 1441 1439 1437 1436 1436 1437 1438 1438 1442 1431 1426 1426 1428 1433 1436 1439 1442 1448 1448 1450 1452 1456 1455 1457 1460 1469 1470 1465 1462 1464 1464 1458 1458 1457 1457 1458 1461 1463 1467 1470
1445 1442 1440 1438 1436 1436 1435 1433 1434 1431 1428 1425 1424 1423 1422 1424 1425 1425 1429 1432 1437 1440 1444 1446 1445 1443 1444 1450 1453 1456 1460 1462 1463 1460 1463 1459 1457 1452 1455 1457 1456 1456 1460 1462 1465
1439 1437 1435 1432 1430 1429 1429 1427 1427 1428 1422 1419 1418 1420 1421 1422 1423 1423 1427 1430 1434 1437 1441 1448 1443 1440 1445 1449 1453 1456 1459 1460 1460 1461 1463 1460 1452 1447 1448 1448 1447 1449 1453 1456 1461
1433 1431 1429 1426 1424 1423 1423 1422 1423 1425 1424 1413 1412 1411 1414 1419 1418 1419 1423 1424 1429 1436 1437 1439 1437 1437 1441 1448 1449 1451 1454 1458 1458 1461 1463 1461 1443 1436 1434 1437 1438 1441 1445 1449 1452
1427 1424 1422 1421 1420 1416 1415 1416 1418 1421 1418 1404 1403 1400 1407 1410 1412 1413 1418 1422 1428 1430 1437 1438 1435 1436 1438 1442 1446 1451 1450 1451 1458 1461 1461 1465 1447 1432 1430 1431 1431 1433 1436 1441 1446
1420 1417 1415 1415 1413 1412 1413 1413 1409 1414 1407 1387 1389 1390 1392 1397 1399 1400 1409 1416 1421 1425 1431 1428 1431 1430 1434 1432 1438 1442 1446 1450 1459 1466 1466 1467 1464 1427 1431 1425 1421 1424 1428 1433 1439
1413 1411 1410 1409 1407 1407 1409 1411 1410 1403 1393 1382 1383 1386 1390 1392 1394 1399 1404 1412 1416 1423 1425 1424 1425 1427 1425 1432 1436 1446 1450 1459 1467 1468 1470 1459 1455 1422 1420 1414 1412 1416 1420 1425 1433
1406 1405 1404 1404 1402 1404 1406 1406 1401 1387 1375 1381 1381 1382 1386 1390 1395 1395 1400 1404 1410 1422 1426 1425 1424 1424 1425 1433 1440 1441 1442 1472 1476 1478 1462 1466 1465 1414 1410 1411 1410 1410 1413 1418 1427
1400 1399 1397 1398 1398 1400 1401 1401 1395 1382 1383 1373 1375 1380 1385 1387 1391 1393 1398 1402 1405 1409 1421 1420 1431 1421 1420 1422 1429 1439 1432 1448 1446 1465 1448 1467 1447 1411 1407 1407 1408 1409 1409 1415 1422
1395 1394 1392 1393 1393 1395 1398 1388 1395 1380 1379 1379 1377 1383 1386 1382 1387 1392 1397 1394 1397 1404 1409 1421 1415 1416 1417 1417 1419 1433 1434 1435 1453 1468 1458 1442 1435 1409 1406 1406 1408 1409 1409 1412 1418
1393 1391 1389 1388 1388 1392 1392 1384 1384 1381 1380 1382 1378 1377 1382 1382 1388 1392 1398 1391 1394 1396 1399 1406 1422 1417 1417 1417 1422 1420 1426 1432 1455 1454 1440 1432 1435 1402 1403 1405 1407 1410 1410 1412 1416
1391 1390 1388 1387 1388 1390 1383 1383 1380 1377 1378 1381 1379 1379 1376 1377 1380 1386 1392 1389 1388 1392 1396 1403 1411 1422 1417 1414 1415 1423 1424 1434 1433 1444 1426 1427 1406 1404 1401 1402 1403 1406 1409 1411 1415
1391 1391 1388 1387 1391 1385 1383 1383 1377 1376 1375 1378 1380 1379 1376 1377 1382 1386 1385 1383 1383 1387 1394 1407 1415 1418 1416 1415 1416 1413 1417 1420 1421 1445 1467 1448 1409 1401 1402 1401 1402 1406 1408 1412 1416
1389 1388 1386 1387 1393 1387 1381 1380 1376 1375 1373 1377 1374 1374 1374 1374 1384 1382 1382 1380 1382 1384 1394 1405 1410 1420 1418 1417 1418 1415 1417 1425 1432 1434 1446 1418 1402 1399 1399 1401 1402 1405 1409 1412 1416
1390 1391 1386 1385 1385 1383 1381 1379 1378 1373 1373 1374 1373 1368 1371 1374 1375 1382 1381 1379 1380 1383 1389 1395 1400 1402 1396 1400 1411 1420 1427 1418 1416 1422 1428 1420 1403 1394 1397 1401 1404 1406 1410 1413 1417
1390 1390 1387 1386 1385 1382 1381 1378 1372 1372 1371 1372 1372 1370 1370 1375 1374 1372 1377 1379 1382 1383 1385 1392 1391 1402 1393 1396 1398 1399 1404 1413 1409 1400 1396 1396 1406 1393 1394 1399 1403 1405 1411 1415 1419
1389 1390 1387 1384 1382 1379 1377 1378 1373 1371 1371 1370 1371 1369 1371 1376 1371 1371 1373 1378 1376 1381 1383 1383 1385 1387 1391 1397 1397 1393 1398 1396 1393 1402 1401 1401 1400 1392 1393 1395 1400 1403 1409 1413 1418
1388 1388 1387 1383 1380 1377 1374 1371 1369 1368 1365 1365 1366 1367 1369 1368 1370 1368 1368 1370 1372 1374 1377 1379 1382 1382 1387 1393 1394 1393 1384 1390 1388 1392 1390 1392 1381 1391 1393 1393 1394 1398 1404 1410 1416
Wind_Speed
21 20 20 19 18 18 17 17 16 17 18 18 16 16 13 8 8 10 15 7 14 12 16 14 12 13 14 10 7 5 2 4 5 7 3 6 4 5 5 12 7 9 7 7 33
17 19 21 22 21 20 19 18 18 17 17 18 18 14 12 9 12 16 8 7 18 12 15 16 14 14 8 7 6 4 3 8 4 4 3 6 5 11 6 7 4 9 9 16 33
20 19 19 19 21 22 21 18 19 19 18 16 17 14 8 10 14 1 1 14 19 12 13 14 13 13 6 6 7 5 4 4 3 5 4 5 4 7 10 5 12 18 19 28 33
25 24 21 22 20 20 23 22 19 19 18 18 15 12 9 8 4 2 3 14 15 15 13 12 13 11 4 5 7 3 6 4 2 5 5 4 7 4 12 3 9 13 19 31 35
22 26 27 24 23 22 20 23 22 19 19 17 15 10 9 6 12 7 7 15 17 15 15 14 17 9 6 5 5 4 3 8 4 5 3 5 5 4 8 9 5 15 24 31 34
29 25 27 26 25 25 24 21 21 21 18 16 14 9 9 7 7 7 13 16 16 14 15 17 12 12 6 3 7 4 9 3 6 6 4 4 3 3 5 14 12 19 27 32 34
26 28 29 25 23 24 25 25 22 21 20 16 16 10 15 23 7 10 14 14 13 13 15 19 8 15 7 4 6 4 3 1 5 7 4 4 7 9 12 14 16 22 28 33 35
26 25 26 26 24 22 24 26 24 21 21 18 15 11 12 15 12 16 16 16 15 12 13 14 14 8 4 7 4 4 3 2 1 8 5 7 9 2 22 22 22 26 30 34 36
30 33 30 25 26 26 23 24 26 25 20 17 11 9 10 12 17 20 19 19 16 14 11 13 13 6 5 5 2 2 3 5 5 8 4 6 5 2 9 22 21 27 31 36 37
31 29 30 34 31 26 27 24 23 23 20 11 10 5 18 8 10 16 24 17 15 16 11 10 7 4 2 7 7 7 4 3 4 3 4 8 12 5 2 13 19 25 30 35 39
30 30 29 28 29 30 27 23 8 8 20 18 12 13 2 7 6 10 25 19 15 16 6 5 7 13 18 9 2 5 4 4 3 3 5 13 12 14 12 9 12 19 28 33 40
29 28 26 26 26 25 22 13 14 6 8 20 32 24 23 3 2 10 24 14 9 7 6 3 10 10 5 8 6 5 4 4 2 1 4 3 13 15 12 11 20 23 27 36 37
30 30 28 25 25 27 25 28 24 18 8 14 23 23 31 25 8 13 27 14 4 6 11 7 4 13 10 6 12 9 8 4 1 1 2 5 8 8 6 20 22 26 32 35 42
30 29 28 27 24 16 17 20 25 19 4 7 8 15 23 16 9 26 29 16 4 12 8 7 4 8 8 12 10 14 7 5 4 2 3 2 5 5 3 7 10 22 31 36 39
32 27 24 20 19 21 17 11 6 14 4 6 12 7 19 23 14 21 33 18 9 8 7 8 9 15 8 13 14 5 7 9 4 3 1 1 2 7 2 5 13 16 27 36 40
32 26 23 23 22 23 19 20 19 5 7 2 7 7 6 19 5 9 21 19 10 6 1 4 2 6 7 3 14 11 7 7 4 3 3 7 6 5 5 6 3 6 27 37 41
27 24 21 20 22 18 14 10 5 5 1 6 6 6 4 6 5 5 14 15 9 7 6 3 3 3 4 6 3 3 9 2 1 1 5 1 3 14 5 5 4 6 20 37 41
21 20 19 20 18 17 12 3 6 5 7 2 4 6 9 8 6 5 12 14 9 4 4 9 5 8 6 7 10 7 7 6 7 4 3 2 7 7 5 4 7 4 12 31 39
19 17 18 16 10 9 9 5 5 2 4 6 2 4 4 5 7 4 8 17 14 8 7 5 6 1 1 4 11 7 5 3 7 3 1 4 6 11 6 4 2 4 11 23 33
16 16 15 6 5 11 5 7 4 4 1 2 3 3 7 7 4 6 9 6 8 14 2 6 2 1 2 4 2 5 9 3 2 5 4 3 4 6 2 7 4 5 10 18 26
12 6 4 7 4 5 4 3 4 7 4 2 3 3 3 5 5 5 9 2 9 8 8 3 3 1 4 6 8 3 3 4 5 2 4 1 5 4 3 5 10 8 15 20 26
5 2 1 2 0 2 2 4 3 2 5 7 4 3 5 5 4 2 15 6 8 6 10 5 2 4 5 1 2 1 6 5 5 5 1 2 5 1 3 5 6 9 15 19 22
1 4 4 4 1 2 3 3 4 2 5 4 5 12 6 5 3 5 6 5 9 7 9 7 4 4 2 3 2 5 4 4 5 3 7 6 5 1 3 3 6 12 14 19 22
1 3 3 4 3 3 2 4 3 5 4 1 4 3 2 1 1 3 5 3 14 6 15 15 5 7 9 7 6 4 2 4 4 3 6 5 4 4 2 6 5 12 17 21 24
1 2 2 3 3 4 4 1 2 2 4 4 3 6 4 1 4 4 4 1 0 6 9 9 7 4 1 3 3 6 12 12 12 13 13 8 8 6 5 7 6 17 19 23 26
2 2 3 4 8 7 5 4 6 8 5 2 5 2 4 4 7 7 8 5 5 4 4 7 4 5 1 4 2 3 6 17 18 4 2 3 6 5 3 11 12 20 25 27 29
3 5 4 3 4 3 1 3 1 2 6 7 7 2 2 5 7 3 6 6 5 7 7 9 5 8 4 4 3 5 12 16 13 7 13 13 12 6 4 7 15 24 30 32 31
Wind_Direction
324 324 324 325 327 325 320 318 319 321 321 324 327 327 325 315 302 282 274 244 190 183 187 182 185 180 178 184 181 159 135 201 211 166 206 162 150 143 145 141 165 188 177 172 168
311 313 316 317 320 320 322 318 316 314 315 317 320 323 323 310 298 290 283 225 171 174 185 183 179 176 174 183 186 171 192 214 210 191 188 166 168 158 147 143 190 185 183 164 173
291 296 297 304 309 313 314 315 316 313 311 309 314 316 318 312 310 284 305 178 172 186 188 188 178 175 180 169 192 185 219 211 225 221 176 160 162 172 140 202 201 195 176 169 176
285 283 289 294 292 299 305 306 310 313 310 305 306 306 306 292 281 330 213 170 171 197 188 182 175 166 163 189 186 191 225 179 240 190 161 169 154 187 199 189 211 208 194 176 181
314 287 283 287 286 285 290 297 304 306 311 307 303 294 288 262 256 235 165 173 193 200 205 191 177 165 173 190 151 196 212 214 211 180 194 165 199 206 223 210 193 191 188 185 187
321 323 320 293 282 279 277 286 291 297 302 306 304 278 263 254 259 208 191 194 205 210 204 195 197 182 180 183 192 228 194 190 225 227 213 192 231 184 231 203 198 189 190 192 194
306 311 314 320 306 281 279 277 282 285 292 298 303 263 257 251 250 226 207 212 214 202 195 193 177 188 185 169 201 167 133 334 213 197 213 182 262 220 212 193 187 190 194 195 198
299 303 297 302 306 314 287 280 278 280 283 289 295 244 250 262 250 221 202 199 198 198 197 194 202 210 202 139 67 129 120 195 245 162 207 143 254 264 212 184 189 195 197 199 200
301 287 289 292 292 295 303 288 276 274 280 282 273 222 259 253 240 226 205 199 193 196 193 193 189 184 157 118 84 4 205 219 313 199 142 192 265 272 190 199 197 199 200 201 201
298 296 290 284 284 293 291 295 282 279 278 260 224 214 245 233 230 222 204 198 179 176 170 172 170 154 136 186 211 193 192 206 215 201 184 217 244 257 221 206 210 206 205 204 205
303 299 296 295 294 287 289 289 292 253 225 216 202 209 299 219 210 205 193 179 175 167 165 201 183 203 200 216 141 139 155 196 220 226 175 235 250 248 235 234 229 215 211 208 210
306 308 305 300 298 293 281 261 234 267 291 243 239 236 238 238 232 193 181 163 160 184 127 104 224 203 164 171 171 156 142 211 283 110 192 324 272 255 222 224 224 216 211 212 209
306 303 299 297 296 291 280 267 277 278 265 255 240 236 236 231 226 201 183 178 143 147 192 185 212 182 174 170 201 220 206 167 154 44 220 330 274 233 211 216 221 224 223 214 211
306 304 300 297 298 294 275 287 273 261 242 240 219 237 221 209 227 219 197 178 171 187 156 232 217 167 181 202 179 220 180 138 132 120 245 351 285 287 218 227 217 205 213 216 211
307 301 297 295 283 273 269 284 312 190 241 221 207 216 212 191 162 202 204 195 165 166 152 216 189 183 184 204 184 220 162 162 120 117 351 169 284 270 20 248 229 210 205 209 210
303 298 298 294 281 276 278 282 273 221 217 192 145 177 120 204 192 123 174 196 160 133 227 191 160 170 187 101 174 149 95 61 69 99 267 201 184 257 211 215 242 186 204 206 206
302 300 292 289 276 285 280 254 231 249 264 179 178 163 146 181 151 136 173 181 167 168 180 130 202 163 135 93 61 167 140 73 38 192 225 154 190 251 273 231 231 221 199 203 205
309 303 290 287 286 276 259 186 238 186 224 36 149 139 178 144 188 153 157 194 210 121 135 173 205 173 182 168 170 188 180 155 178 191 196 116 223 248 235 280 215 263 217 201 202
316 307 297 305 284 240 225 220 207 204 158 311 19 121 201 172 136 138 176 197 200 180 168 158 226 84 111 148 160 192 200 147 107 57 75 205 273 283 217 242 232 181 173 188 198
317 313 307 307 255 212 238 252 198 235 158 314 226 204 171 188 135 134 174 190 203 194 165 196 94 303 164 116 62 184 153 116 11 145 225 240 267 249 244 232 217 200 190 182 189
318 327 317 348 181 204 256 221 246 230 155 131 261 286 205 173 139 155 192 322 185 191 168 115 112 266 145 211 165 136 176 57 115 111 176 224 253 213 253 226 204 204 193 182 183
297 274 336 91 193 229 223 196 257 219 212 213 203 259 225 160 133 157 190 216 156 134 189 163 118 164 191 316 328 174 169 159 150 210 87 103 275 149 290 283 181 192 188 185 184
263 272 279 213 257 246 241 267 252 212 217 181 225 202 200 175 142 178 189 199 171 143 159 170 179 113 68 2 356 219 189 126 105 92 189 171 245 135 65 115 168 169 178 178 176
278 340 314 226 238 302 329 258 242 235 248 228 292 304 108 55 109 194 185 201 172 136 169 181 173 175 186 194 136 166 184 188 124 172 154 217 282 302 187 177 171 170 172 169 170
203 269 271 296 293 255 231 260 261 256 212 154 264 233 138 303 192 180 229 148 345 187 173 176 199 168 158 143 142 169 177 181 196 199 204 207 209 250 222 195 190 177 170 166 166
172 236 310 285 282 260 227 222 234 244 193 194 228 213 125 216 213 190 180 182 198 157 213 179 196 136 314 145 214 229 207 204 209 190 228 165 242 215 107 144 162 181 179 177 176
302 279 268 268 281 259 259 255 299 235 243 208 215 149 207 206 275 179 152 169 193 169 193 173 139 160 195 151 141 277 212 194 208 202 191 210 212 157 187 190 184 184 188 187 186